Weather History for KFAY - October, 2013

Change the Weather History Date:

Monday, October 7, 2013

  Actual Average Record
Temperature  
Mean Temperature 73 °F 66 °F  
Max Temperature 81 °F 77 °F 101 °F (1954)
Min Temperature 65 °F 56 °F 33 °F (1935)
Degree Days  
Heating Degree Days 0 2  
Month to date heating degree days 0 11  
Since 1 July heating degree days 0 20  
Cooling Degree Days 8 3  
Month to date cooling degree days 61 28  
Year to date cooling degree days 1905 1936  
Growing Degree Days 26 (Base 50)    
Moisture  
Dew Point 70 °F    
Average Humidity 84    
Maximum Humidity 100    
Minimum Humidity 67    
Precipitation  
Precipitation 0.21 in 0.14 in 1.70 in (1965)
Month to date precipitation 0.21 1.09  
Year to date precipitation 35.84 36.92  
Sea Level Pressure  
Sea Level Pressure 29.89 in    
Wind  
Wind Speed 7 mph (SE)    
Max Wind Speed 22 mph    
Max Gust Speed 29 mph    
Visibility 9 miles    
Events Rain    
T = Trace of Precipitation, MM = Missing Value Source: NWS Daily Summary

Daily Weather History Graph

Daily Weather History Graph

Search for Another Location

Airport or City:

Trip Planner

Search our weather history database for the weather conditions in past years. The results will help you decide how hot, cold, wet, or windy it might be!

Date:

Astronomy

Oct. 07, 2013 Rise Set
Actual Time 7:15 AM EDT 6:50 PM EDT
Civil Twilight 6:49 AM EDT 7:16 PM EDT
Nautical Twilight 6:20 AM EDT 7:45 PM EDT
Astronomical Twilight 5:51 AM EDT 8:14 PM EDT
Moon 9:56 AM EDT (10/7) 8:41 PM EDT (10/7)
Length of Visible Light 12h 26m
Length of Day
11h 35m
Waxing Crescent, 8% of the Moon is Illuminated
Oct 7
Waxing Crescent
Oct 11
First Quarter
Oct 18
Full
Oct 26
Last Quarter
Nov 3
New

Hourly Weather History & Observations

Time (EDT) Temp. Heat Index Dew Point Humidity Pressure Visibility Wind Dir Wind Speed Gust Speed Precip Events Conditions
12:13 AM 73.4 °F - 69.8 °F 88% 29.95 in 10.0 mi SSE 4.6 mph - N/A   Mostly Cloudy
12:35 AM 71.6 °F - 69.8 °F 94% 29.94 in 10.0 mi SSE 5.8 mph - N/A   Partly Cloudy
12:53 AM 71.1 °F - 69.1 °F 93% 29.92 in 10.0 mi SE 5.8 mph - N/A   Partly Cloudy
1:02 AM 71.6 °F - 69.8 °F 94% 29.94 in 10.0 mi SE 6.9 mph - N/A   Mostly Cloudy
1:10 AM 71.6 °F - 69.8 °F 94% 29.94 in 10.0 mi SE 4.6 mph - N/A   Mostly Cloudy
1:53 AM 72.0 °F - 70.0 °F 93% 29.91 in 10.0 mi SSE 5.8 mph - N/A   Overcast
2:00 AM 71.6 °F - 69.8 °F 94% 29.93 in 10.0 mi SSE 4.6 mph - N/A   Overcast
2:30 AM 71.6 °F - 69.8 °F 94% 29.92 in 10.0 mi SE 6.9 mph - N/A   Mostly Cloudy
2:53 AM 72.0 °F - 70.0 °F 93% 29.89 in 10.0 mi SE 5.8 mph - N/A   Overcast
3:19 AM 71.6 °F - 69.8 °F 94% 29.90 in 10.0 mi SSE 4.6 mph - N/A   Mostly Cloudy
3:53 AM 72.0 °F - 70.0 °F 93% 29.88 in 10.0 mi SSE 3.5 mph - N/A   Overcast
4:11 AM 71.6 °F - 69.8 °F 94% 29.89 in 7.0 mi SE 5.8 mph - 0.00 in Rain Light Rain
4:18 AM 71.6 °F - 69.8 °F 94% 29.89 in 8.0 mi SE 4.6 mph - 0.00 in Rain Light Rain
4:34 AM 71.6 °F - 69.8 °F 94% 29.89 in 10.0 mi SSE 4.6 mph - 0.00 in   Mostly Cloudy
4:42 AM 71.6 °F - 69.8 °F 94% 29.89 in 10.0 mi SSE 4.6 mph - 0.00 in   Mostly Cloudy
4:50 AM 71.6 °F - 69.8 °F 94% 29.89 in 10.0 mi SSE 4.6 mph - 0.00 in   Mostly Cloudy
4:53 AM 72.0 °F - 70.0 °F 93% 29.87 in 10.0 mi SSE 4.6 mph - 0.00 in   Mostly Cloudy
5:28 AM 71.6 °F - 69.8 °F 94% 29.88 in 9.0 mi SE 6.9 mph - N/A   Overcast
5:53 AM 72.0 °F - 71.1 °F 97% 29.86 in 8.0 mi SE 6.9 mph - N/A   Overcast
6:53 AM 73.0 °F - 71.1 °F 93% 29.86 in 10.0 mi SSE 9.2 mph - 0.01 in   Scattered Clouds
7:53 AM 73.0 °F - 71.1 °F 93% 29.86 in 10.0 mi SSE 5.8 mph - 0.00 in   Mostly Cloudy
8:53 AM 75.9 °F - 72.0 °F 87% 29.87 in 10.0 mi South 5.8 mph - N/A   Clear
9:17 AM 78.8 °F - 71.6 °F 78% 29.90 in 10.0 mi South 9.2 mph - N/A   Mostly Cloudy
9:53 AM 78.1 °F - 71.1 °F 79% 29.88 in 10.0 mi South 9.2 mph - 0.00 in   Overcast
10:53 AM 78.1 °F - 72.0 °F 81% 29.88 in 10.0 mi South 10.4 mph - N/A   Overcast
11:23 AM 80.6 °F 83.9 °F 69.8 °F 70% 29.90 in 10.0 mi South 17.3 mph 25.3 mph N/A   Overcast
11:53 AM 80.1 °F 82.7 °F 68.0 °F 67% 29.87 in 10.0 mi South 17.3 mph 27.6 mph N/A   Mostly Cloudy
12:53 PM 72.0 °F - 70.0 °F 93% 29.88 in 3.0 mi SW 9.2 mph - 0.08 in Rain Light Rain
1:53 PM 73.0 °F - 70.0 °F 90% 29.84 in 9.0 mi South 9.2 mph 17.3 mph 0.10 in Rain Light Rain
2:53 PM 75.0 °F - 70.0 °F 84% 29.85 in 10.0 mi South 8.1 mph - 0.00 in   Clear
3:53 PM 75.9 °F - 71.1 °F 85% 29.85 in 10.0 mi Calm Calm - N/A   Mostly Cloudy
4:40 PM 77.0 °F - 71.6 °F 83% 29.86 in 10.0 mi SSE 5.8 mph - N/A   Mostly Cloudy
4:53 PM 75.9 °F - 71.1 °F 85% 29.85 in 6.0 mi South 4.6 mph - 0.01 in Rain Light Rain
5:25 PM 75.2 °F - 71.6 °F 89% 29.85 in 10.0 mi SE 5.8 mph - 0.01 in   Overcast
5:53 PM 75.0 °F - 72.0 °F 90% 29.83 in 10.0 mi SE 3.5 mph - 0.01 in   Clear
6:53 PM 73.9 °F - 71.1 °F 91% 29.85 in 10.0 mi East 3.5 mph - N/A   Clear
7:53 PM 73.0 °F - 70.0 °F 90% 29.87 in 10.0 mi NNW 3.5 mph - N/A   Scattered Clouds
8:38 PM 73.4 °F - 71.6 °F 94% 29.90 in 10.0 mi NNW 3.5 mph - N/A   Overcast
8:53 PM 73.0 °F - 71.1 °F 93% 29.87 in 10.0 mi East 8.1 mph - N/A   Overcast
9:05 PM 73.4 °F - 69.8 °F 88% 29.89 in 10.0 mi East 4.6 mph - N/A   Overcast
9:53 PM 72.0 °F - 70.0 °F 93% 29.90 in 10.0 mi North 5.8 mph - N/A   Clear
10:23 PM 73.4 °F - 71.6 °F 94% 29.93 in 9.0 mi NNE 5.8 mph - N/A   Mostly Cloudy
10:43 PM 71.6 °F - 71.6 °F 100% 29.94 in 7.0 mi NE 4.6 mph - N/A   Overcast
10:53 PM 72.0 °F - 71.1 °F 97% 29.93 in 7.0 mi NNE 5.8 mph - N/A   Overcast
11:05 PM 73.4 °F - 71.6 °F 94% 29.94 in 8.0 mi North 5.8 mph - N/A   Overcast
11:30 PM 71.6 °F - 69.8 °F 94% 29.95 in 10.0 mi NNE 18.4 mph 23.0 mph N/A   Overcast
11:53 PM 69.1 °F - 66.0 °F 90% 29.94 in 10.0 mi North 11.5 mph 21.9 mph N/A   Overcast